Location: Limoges
(45.8354°N, 1.2645°E)
Time: 19:02:26
(UTC+02:00)

Vanguard 2 Rocket - Pass Details

Date: 23 February 2024
Orbit: 555 x 3307 km, 32.9° (Epoch: 23 April)

Event Time Altitude Azimuth Distance (km) Brightness Sun altitude
Rises 21:00:04 0° 273° (W) 6,188 12.4 -26.3°
Reaches altitude 10° 21:04:15 10° 265° (W) 5,495 11.7 -27.0°
Maximum altitude 21:19:10 35° 209° (SSW) 4,417 10.3 -29.5°
Enters shadow 21:32:30 17° 159° (SSE) 5,599 10.5 -31.7°
